Manston, United Kingdom

11:39 AM GMT on December 05, 2016 (GMT +0000)
Manston

Weather History for EGMH - December, 2012

Change the Weather History Date:

Tuesday, December 4, 2012

  Actual Average Record
Temperature  
Mean Temperature 38 °F -  
Max Temperature 44 °F - - ()
Min Temperature 33 °F - - ()
Degree Days  
Heating Degree Days 26    
Moisture  
Dew Point 36 °F    
Average Humidity 87    
Maximum Humidity 94    
Minimum Humidity 73    
Precipitation  
Precipitation 0.01 in - - ()
Sea Level Pressure  
Sea Level Pressure 29.59 in    
Wind  
Wind Speed 13 mph ()    
Max Wind Speed 23 mph    
Max Gust Speed -    
Visibility 8.3 miles    
Events Rain    
T = Trace of Precipitation, MM = Missing Value Source: Averaged Metar Reports

Daily Weather History Graph

Daily Weather History Graph

Search for Another Location

Airport or City:

Trip Planner

Search our weather history database for the weather conditions in past years. The results will help you decide how hot, cold, wet, or windy it might be!

Date:

Astronomy

Dec. 04, 2012 Rise Set
Actual Time 7:41 AM GMT 3:48 PM GMT
Civil Twilight 7:02 AM GMT 4:27 PM GMT
Nautical Twilight 6:20 AM GMT 5:09 PM GMT
Astronomical Twilight 5:39 AM GMT 5:49 PM GMT
Moon 9:45 PM GMT (12/4) 11:05 AM GMT (12/4)
Length of Visible Light 9h 24m
Length of Day
8h 06m
Waning Gibbous, 71% of the Moon is Illuminated
Dec 4
Waning Gibbous
Dec 6
Last Quarter
Dec 13
New
Dec 20
First Quarter
Dec 28
Full

Hourly Weather History & Observations

Time (GMT) Temp. Windchill Dew Point Humidity Pressure Visibility Wind Dir Wind Speed Gust Speed Precip Events Conditions
2:50 AM 37 °F - 35 °F 91% 29.60 in 19 mi West 13.8 mph - -   Partly Cloudy
5:50 AM 36 °F - 35 °F 94% 29.59 in 19 mi West 12.7 mph - -  
5:50 AM 35.6 °F 27.1 °F 33.8 °F 93% 29.56 in - West 12.7 mph - N/A   Clear
6:20 AM 35.6 °F 26.6 °F 33.8 °F 93% 29.56 in - West 13.8 mph - N/A   Clear
6:50 AM 35.6 °F 27.5 °F 33.8 °F 93% 29.56 in - West 11.5 mph - N/A   Clear
7:20 AM 35.6 °F 28.0 °F 33.8 °F 93% 29.59 in 6.2 mi West 10.4 mph - N/A   Partly Cloudy
7:50 AM 35.6 °F 27.5 °F 33.8 °F 93% 29.59 in 6.2 mi West 11.5 mph - N/A   Partly Cloudy
8:20 AM 39.2 °F 31.2 °F 35.6 °F 87% 29.59 in 6.2 mi West 13.8 mph - N/A   Partly Cloudy
8:50 AM 38 °F - 36 °F 89% 29.61 in 31 mi West 16.1 mph - -   Scattered Clouds
8:50 AM 37.4 °F 28.2 °F 33.8 °F 87% 29.59 in 6.2 mi West 16.1 mph - N/A   Partly Cloudy
9:20 AM 41.0 °F 32.2 °F 35.6 °F 81% 29.59 in 6.2 mi West 18.4 mph - N/A   Partly Cloudy
9:50 AM 39.2 °F 30.2 °F 35.6 °F 87% 29.59 in 6.2 mi West 17.3 mph - N/A   Partly Cloudy
10:20 AM 41.0 °F 32.8 °F 37.4 °F 87% 29.59 in 6.2 mi West 16.1 mph - N/A   Partly Cloudy
10:50 AM 41.0 °F 32.5 °F 37.4 °F 87% 29.59 in 6.2 mi West 17.3 mph - N/A   Partly Cloudy
11:20 AM 41.0 °F 31.9 °F 37.4 °F 87% 29.59 in 6.2 mi West 19.6 mph - N/A   Partly Cloudy
11:50 AM 43 °F - 38 °F 77% 29.61 in 14 mi WNW 21.9 mph - -  
11:50 AM 42.8 °F 33.5 °F 37.4 °F 81% 29.59 in 6.2 mi WNW 23.0 mph - N/A   Partly Cloudy
12:20 PM 42.8 °F 33.8 °F 37.4 °F 81% 29.59 in 6.2 mi WNW 21.9 mph - N/A   Partly Cloudy
12:50 PM 42.8 °F 34.3 °F 37.4 °F 81% 29.59 in 6.2 mi West 19.6 mph - N/A   Partly Cloudy
1:20 PM 44.6 °F 36.6 °F 39.2 °F 81% 29.59 in 6.2 mi West 19.6 mph - N/A   Partly Cloudy
1:50 PM 42.8 °F 34.3 °F 37.4 °F 81% 29.59 in 6.2 mi WNW 19.6 mph - N/A   Mostly Cloudy
2:20 PM 42.8 °F 35.1 °F 37.4 °F 81% 29.59 in 6.2 mi WNW 16.1 mph - N/A   Mostly Cloudy
2:50 PM 44 °F - 38 °F 73% 29.60 in 12 mi WNW 12.7 mph - -   Mostly Cloudy
2:50 PM 42.8 °F 35.4 °F 37.4 °F 81% 29.59 in 6.2 mi WNW 15.0 mph - N/A Rain Light Rain Showers
3:20 PM 42.8 °F 34.3 °F 37.4 °F 81% 29.59 in 6.2 mi WNW 19.6 mph - N/A Rain Light Rain Showers
3:50 PM 42.8 °F 34.5 °F 37.4 °F 81% 29.59 in 6.2 mi NW 18.4 mph - N/A Rain Light Rain Showers
4:20 PM 41.0 °F 33.9 °F 37.4 °F 87% 29.59 in 6.2 mi WNW 12.7 mph - N/A   Scattered Clouds
4:50 PM 41.0 °F 33.5 °F 37.4 °F 87% 29.59 in 6.2 mi West 13.8 mph - N/A Rain Light Rain
5:20 PM 39.2 °F 32.5 °F 37.4 °F 93% 29.59 in 6.2 mi West 10.4 mph - N/A   Mostly Cloudy
5:50 PM 41 °F - 38 °F 83% 29.62 in 15 mi West 12.7 mph - - Rain Rain
5:50 PM 41.0 °F 34.3 °F 37.4 °F 87% 29.59 in 6.2 mi West 11.5 mph - N/A   Mostly Cloudy
8:50 PM 36 °F - 34 °F 91% 29.62 in 14 mi West 11.5 mph - -   Partly Cloudy
10:50 PM 33.8 °F 25.8 °F 32.0 °F 93% 29.59 in 6.2 mi West 10.4 mph - N/A   Partly Cloudy
11:20 PM 33.8 °F 25.3 °F 32.0 °F 93% 29.59 in - WNW 11.5 mph - N/A   Clear
11:50 PM 35 °F - 33 °F 91% 29.61 in 12 mi West 9.2 mph - -   Scattered Clouds
11:50 PM 33.8 °F 25.8 °F 32.0 °F 93% 29.59 in - West 10.4 mph - N/A   Clear